Find Starlink 36882

NORAD ID: 67980 Int'l Des: 2026-038 Owner: SPXS Country: US Constellation: starlink operational
LEOCIRCULARRETROGRADE

当前视图

正在加载3D地球...

About Starlink 36882

Starlink 36882 (NORAD 67980) is a starlink constellation satellite (v2 mini) launched Feb 25, 2026 by SPXS of US. It operates in LEO, CIRCULAR, RETROGRADE orbit with a mass of 575.00 kg.

关于 Starlink 36882

正在加载描述...

即将过境

Passes for default location (London). Set your location on the main map for personalized predictions.

高度历史

Loading altitude history...

两行轨道根数

1 67980U 26038V 26194.50647164 .00003859 00000-0 12189-3 0 9993
2 67980 97.2841 203.8783 0001742 97.4248 262.7193 15.33417777 22528
Epoch: Jul 13, 2026 • Age: 14 hours

当前状态

高度 490.0 km
远地点 / 近地点 N/A
速度 7.62 km/s
星下点 -60.58°S, 53.46°E
发射日期 Feb 25, 2026
运行时间 0.3 years
类型 internet

技术详情

分类 Payload
质量 575.00 kg
干质量 530.00 kg
总质量 575.00 kg
长度 0.30 m
直径 4.10 m
跨度 29.00 m
形状 Box + pan
制造商 SPXS
平台类型 Starlink V2MO
阶段状态 In Orbit
所有者/国家 SPXS/US

Most Searched